Location: Baili�vre
(50.0696°N, 4.2409°E)
Time: 04:56:38
(UTC+00:00)

COSMOS 2428 - Pass Details

Date: 08 August 2020
Orbit: 844 x 859 km, 70.9° (Epoch: 23 September)

Event Time Altitude Azimuth Distance (km) Brightness Sun altitude
Rises 22:11:12 0° 333° (NNW) 3,432 7.5 -20.7°
Reaches altitude 10° 22:14:00 10° 344° (NNW) 2,496 6.3 -20.9°
Maximum altitude 22:18:57 29° 44° (NE) 1,538 4.2 -21.2°
Enters shadow 22:22:35 16° 94° (E) 2,116 4.5 -21.5°
